Regional Weather Roundup
Issued by NWS

Home | Current Version | Previous Version | Text Only | Print | Product List | Glossary Off
Versions: 1 2 3 4 5 6 7 8 9 10 11 12 13 14 15 16 17 18 19 20 21 22 23 24 25 26 27 28 29 30 31 32 33 34 35 36 37 38 39 40 41 42 43 44 45 46 47 48 49 50

000
ASUS43 KMPX 251501
RWRMN
WEATHER ROUNDUP FOR MINNESOTA
NATIONAL WEATHER SERVICE TWIN CITIES/CHANHASSEN MN
1000 AM CDT THU AUG 25 2016


NOTE: "FAIR" INDICATES FEW OR NO CLOUDS BELOW 12,000 FEET WITH NO
SIGNIFICANT WEATHER AND/OR OBSTRUCTIONS TO VISIBILITY. N/A MEANS
CURRENT SKY AND/OR WEATHER CONDITIONS ARE NOT AVAILABLE.

MNZ060>063-068>070-251600-
   Twin Cities Metro

CITY           SKY/WX    TMP DP  RH WIND       PRES   REMARKS
TWIN CITIES    MOSUNNY   70  56  61 NW13      30.03R
ST PAUL        SUNNY     71  60  68 W8        30.03R
CRYSTAL        SUNNY     68  53  58 W13       30.02R
LAKEVILLE      SUNNY     66  57  72 W8        30.04R
EDEN PRAIRIE   SUNNY     69  55  60 NW12      30.03R
LAKEVILLE      SUNNY     66  57  72 W8        30.04R
SOUTH ST PAUL  SUNNY     69  58  68 W6        30.02R
LAKE ELMO      FAIR      70  61  73 W8        30.03R
$$
MNZ001>005-007-008-013>017-022>024-027-028-251600-
   Northwest Minnesota

CITY           SKY/WX    TMP DP  RH WIND       PRES   REMARKS
BEMIDJI        CLOUDY    58  52  83 W16       29.95R
HALLOCK        CLOUDY    55  55 100 NW15G21   29.95R FOG
ROSEAU         PTSUNNY   61  55  82 NW9G17    29.88R
WARROAD        CLOUDY    57  54  88 W8        29.88R FOG
THIEF RVR FALL CLOUDY    58  56  93 NW13      29.95R
CROOKSTON      LGT RAIN  57  57 100 NW21G26   29.97R
FOSSTON        CLOUDY    55  54  94 W12G22    29.96S
DETROIT LAKES  CLOUDY    59  52  77 W13G20    30.01S
MOORHEAD       CLOUDY    61  54  77 W14       30.02R
PARK RAPIDS    CLOUDY    59  53  80 W13       29.99R
MAHNOMEN       CLOUDY    58  53  83 W18G24    29.98S
$$
MNZ006-009>011-018-025>026-251600-
   North Central Minnesota

CITY           SKY/WX    TMP DP  RH WIND       PRES   REMARKS
BAUDETTE       CLOUDY    60  54  80 SW9       29.87R
FLAG ISLAND    CLOUDY    61  55  82 W5        29.84R
INTL FALLS       N/A     58  54  86 W13       29.88R
WASKISH        CLOUDY    61  55  82 W18       29.90S
BIG FORK       PTSUNNY   61  54  77 SW10      29.92S
LONGVILLE      MOSUNNY   63  55  77 SW10      29.96S
GRAND RAPIDS   CLOUDY    62  54  74 W7        29.96S
CRANE LAKE     CLOUDY    59  54  82 W5        29.91S
ORR            CLOUDY    59  52  77 W9        29.89S
COOK           CLOUDY    61  54  77 W10       29.92S
WALKER         CLOUDY    58  52  81 W13G22    29.96R
$$
MNZ012-019>021-037-251600-
   Northeast Minnesota

CITY           SKY/WX    TMP DP  RH WIND       PRES   REMARKS
DULUTH         MOSUNNY   68  54  60 W17G24    29.94S
ELY            MOSUNNY   64  54  68 W10       29.90S
HIBBING        PTSUNNY   61  54  77 W10G16    29.93S
EVELETH        PTSUNNY   63  55  75 W9G15     29.93S
DULUTH HARBOR  SUNNY     70  57  64 SW14      29.93F
TWO HARBORS    SUNNY     72  57  60 W12       29.90S
SILVER BAY     SUNNY     72  54  53 SW7       29.89S
G MARAIS ARPRT SUNNY     66  50  55 SW10G16   29.91S
$$
MNZ029>031-032-039>041-046>048-054>057-064-251600-
   West Central Minnesota

CITY           SKY/WX    TMP DP  RH WIND       PRES   REMARKS
FERGUS FALLS   CLOUDY    57  55  94 W10G21    30.05S
WHEATON        MOSUNNY   63  54  72 W18       30.08S
MORRIS         PTSUNNY   61  54  77 NW15G21   30.05S
ALEXANDRIA     CLOUDY    59  50  72 W20       30.05S
ELBOW LAKE     CLOUDY    58  52  81 NW16G22   30.05S
WADENA         CLOUDY    55  54  94 W12       30.01R
GLENWOOD       MOSUNNY   61  52  72 W18G25    30.05R
APPLETON       SUNNY     63  54  72 W13       30.07R
BENSON         SUNNY     63  52  67 NW13G22   30.06S
ORTONVILLE     MOSUNNY   63  52  67 W14G20    30.08R
MADISON        MOSUNNY   63  52  67 NW12G18   30.09R
WILLMAR        FAIR      63  55  77 W13G21    30.08R
$$
MNZ033>034-036-042>043-049>051-058-059-251600-
   Central Minnesota

CITY           SKY/WX    TMP DP  RH WIND       PRES   REMARKS
ST CLOUD       SUNNY     64  54  69 W15G23    30.02S
SAUK CENTRE    PTSUNNY   60  52  75 W16       30.04S
PAYNESVILLE    SUNNY     62  54  75 W8        30.06R
AITKIN         PTSUNNY   63  52  67 W9G17     29.97S
PINE RIVER     CLOUDY    59  52  77 W7        30.01S
BRAINERD       PTSUNNY   60  52  74 W13G20    30.00S
STAPLES        CLOUDY    57  52  82 W14       30.01S
LONG PRAIRIE   PTSUNNY   59  50  72 SW10G16   30.04R
LITTLE FALLS   PTSUNNY   61  50  67 W13       30.02S
LITCHFIELD     CLOUDY    64  55  72 W12G20    30.06R
BUFFALO        SUNNY     65  53  64 W14       30.05R
MAPLE LAKE     SUNNY     65  56  72 W10       30.05R
HUTCHINSON     MOSUNNY   63  57  80 W10       30.07R
$$
MNZ037-044-045-052-053-251600-
   East Central Minnesota

CITY           SKY/WX    TMP DP  RH WIND       PRES   REMARKS
PRINCETON      SUNNY     66  55  68 W12G17    30.02R
MORA           SUNNY     64  54  68 W13G18    30.01S
CAMBRIDGE      SUNNY     70  54  56 W10G16    29.99S
RUSH CITY      SUNNY     67  55  65 W6        30.00S
MOOSE LAKE     SUNNY     64  52  63 W10G18    29.95S
HINCKLEY       FAIR      68  55  64 W12       29.98S
CLOQUET        SUNNY     64  52  63 SW12G21   29.95S
MCGREGOR       MOSUNNY   63  54  72 W10G18    29.97F
$$
MNZ071>073-080-081-089-090-097-098-251600-
   Southwest Minnesota

CITY           SKY/WX    TMP DP  RH WIND       PRES   REMARKS
MONTEVIDEO     CLOUDY    63  54  72 NW12G17   30.11R
GRANITE FALLS  PTSUNNY   63  56  79 W14       30.11R
CANBY          CLOUDY    62  53  72 W13       30.12R
MARSHALL       CLOUDY    62  54  74 NW13      30.11R HAZE
REDWOOD FALLS  CLOUDY    63  53  70 W14       30.09R
OLIVIA         CLOUDY    61  54  77 NW14      30.08R
PIPESTONE      PTSUNNY   61  52  72 NW10      30.13R
WINDOM         CLOUDY    64  54  68 W9        30.11R
WORTHINGTON    CLOUDY    63  54  72 NW9       30.14R
JACKSON        MOSUNNY   64  54  68 NW8       30.12R
TRACY          CLOUDY    63  54  73 NW10      30.11R
$$
MNZ065>067-074>077-082>085-091>093-251600-
   South Central Minnesota

CITY           SKY/WX    TMP DP  RH WIND       PRES   REMARKS
MANKATO        MOSUNNY   66  55  68 NW10      30.08R
NEW ULM          N/A     64  55  72 NW8       30.08R
ST JAMES       MOSUNNY   61  52  72 W7        30.10R
FAIRMONT       CLOUDY    65  55  70 NW9       30.11R
GLENCOE        MOSUNNY   65  58  76 W8        30.05R
FARIBAULT      SUNNY     68  61  77 W7        30.06R
OWATONNA       SUNNY     68  59  73 W12       30.07R
WASECA         SUNNY     64  59  82 W7        30.09R
ALBERT LEA     SUNNY     70  57  64 W8        30.08R
$$
MNZ078>079-086>088-094>096-251600-
   Southeast Minnesota

CITY           SKY/WX    TMP DP  RH WIND       PRES   REMARKS
ROCHESTER      SUNNY     72  61  68 SW8       30.07R
RED WING       SUNNY     73  61  64 W6        30.01S
DODGE CENTER   SUNNY     73  59  60 W8        30.06R
WINONA         SUNNY     72  61  68 CALM      30.04R
AUSTIN         SUNNY     72  57  60 W7        30.08R
PRESTON        SUNNY     70  58  65 W6        30.08R
$$
ABBREVIATIONS USED IN REMARKS
   TC - TEMPERATURES IN CELSIUS
  WCI - WIND CHILL INDEX
   HX - HEAT INDEX
  VSB - VISIBILITY
$$




USA.gov is the U.S. government's official web portal to all federal, state and local government web resources and services.